Date String (YYYY-MM-DD hh:mm:ss) UTC,Instrument flags,absolute air pressure of the measurement (hPa),sample flow rate (lpm),inlet stack bypass flow (lpm),air temperature of the measurement (°C),ambient temperature measured by the external sensor (°C),aerosol sample conditioner tube jacket temperature (°C),OPC LED temperature (°C),internal box temperature (°C),relative humidity of the measurement (%),span deviation,mass concentration of particles derived from Lorenz-Mie calculation of OPC scattering (μg/m³),mass concentration of particles derived from Lorenz-Mie calculation of OPC scattering (μg/m³),mass concentration of particles derived from Lorenz-Mie calculation of OPC scattering (μg/m³)
DateTimeUTC,F1_M11,P_M11,Q1_M11,Q2_M11,T1_M11,T2_M11,T3_M11,T4_M11,T5_M11,U1_M11,ZSPAN_M11,X2_M11,X0_M11,X1_M11
2024-05-03 20:00:00,SystemResetWarning,0820.9,5.00,000.00,024.1,022.6,000.0,032.5,025.7,012.5,0000.0,0005.44,0020.04,0003.11
2024-05-03 20:01:00,SystemResetWarning,0820.9,5.01,000.00,024.2,023.0,000.0,032.5,025.9,011.9,0000.0,0005.39,0019.79,0003.11
2024-05-03 20:02:00,SystemResetWarning,0820.7,5.00,000.00,024.3,023.3,000.0,032.5,026.1,011.5,0000.0,0005.37,0019.60,0003.07
2024-05-03 20:03:00,SystemResetWarning,0820.5,4.98,000.00,024.4,023.5,000.0,032.5,026.2,011.5,0000.0,0005.39,0018.86,0003.04
2024-05-03 20:04:00,SystemResetWarning,0820.5,5.00,000.00,024.4,023.7,000.0,032.5,026.3,012.1,0000.0,0005.47,0019.57,0003.03
2024-05-03 20:05:00,SystemResetWarning,0820.6,5.00,000.00,024.5,023.9,000.0,032.5,026.4,013.0,0000.0,0005.45,0020.07,0003.00
2024-05-03 20:06:00,SystemResetWarning,0820.6,5.00,000.00,024.6,024.1,000.0,032.5,026.5,014.1,0000.0,0005.47,0021.82,0002.99
2024-05-03 20:07:00,SystemResetWarning,0820.7,5.00,000.00,024.7,024.2,000.0,032.6,026.6,013.6,0000.0,0005.42,0022.01,0002.94
2024-05-03 20:08:00,SystemResetWarning,0820.7,5.01,000.00,024.8,024.3,000.0,032.6,026.7,012.6,0000.0,0005.32,0021.30,0002.92
2024-05-03 20:09:00,SystemResetWarning,0820.7,5.00,000.00,024.7,023.6,000.0,032.7,026.2,012.2,0000.0,0005.26,0019.53,0002.87
2024-05-03 20:10:00,SystemResetWarning,0820.7,5.00,000.00,024.4,021.6,000.0,032.8,025.1,012.1,0000.0,0005.21,0019.20,0002.86
2024-05-03 20:11:00,SystemResetWarning,0820.7,5.02,000.00,024.1,021.3,000.0,032.8,024.9,012.8,0000.0,0005.25,0019.60,0002.85
2024-05-03 20:12:00,SystemResetWarning,0820.7,4.99,000.00,024.0,021.7,000.0,032.7,025.1,012.2,0000.0,0005.33,0019.45,0002.83
2024-05-03 20:13:00,SystemResetWarning,0820.7,4.99,000.00,024.0,022.1,000.0,032.5,025.4,014.7,0000.0,0005.34,0019.04,0002.82
2024-05-03 20:14:00,SystemResetWarning,0820.7,5.01,000.00,024.1,022.5,000.0,032.5,025.6,019.2,0000.0,0005.34,0019.69,0002.87
2024-05-03 20:15:00,SystemResetWarning,0820.7,5.00,000.00,024.1,022.8,000.0,032.4,025.7,021.1,0000.0,0005.61,0022.30,0003.18
2024-05-03 20:16:00,SystemResetWarning,0820.6,4.99,000.00,024.2,023.1,000.0,032.4,026.0,021.7,0000.0,0006.22,0026.17,0003.55
2024-05-03 20:17:00,SystemResetWarning,0820.5,4.99,000.00,024.3,023.3,000.0,032.4,026.1,021.6,0000.0,0006.80,0028.44,0003.91
2024-05-03 20:18:00,SystemResetWarning,0820.5,5.00,000.00,024.3,023.6,000.0,032.4,026.2,021.6,0000.0,0007.43,0030.44,0004.29
2024-05-03 20:19:00,SystemResetWarning,0820.5,5.01,000.00,024.4,023.8,000.0,032.5,026.3,021.1,0002.3,0007.88,0032.76,0004.61
2024-05-03 20:20:00,SystemResetWarning,0820.7,5.00,000.00,024.5,023.9,000.0,032.5,026.4,020.6,0002.0,0008.26,0034.29,0004.92
2024-05-03 20:21:00,SystemResetWarning,0820.8,4.99,000.00,024.5,024.0,000.0,032.5,026.4,020.5,0003.0,0008.57,0035.29,0005.22
2024-05-03 20:22:00,SystemResetWarning,0820.9,4.99,000.00,024.6,024.2,000.0,032.6,026.5,020.0,0003.4,0008.87,0036.17,0005.49
2024-05-03 20:23:00,SystemResetWarning,0821.0,5.00,000.00,024.7,024.3,000.0,032.6,026.6,020.1,0004.1,0009.12,0036.57,0005.75
2024-05-03 20:24:00,SystemResetWarning,0821.2,5.01,000.00,024.7,024.4,000.0,032.6,026.6,020.3,0004.5,0009.30,0036.83,0005.97
2024-05-03 20:25:00,SystemResetWarning,0821.1,5.01,000.00,024.8,024.5,000.0,032.7,026.7,020.1,0004.5,0009.43,0036.19,0006.15
2024-05-03 20:26:00,SystemResetWarning,0821.1,5.00,000.00,024.9,024.6,000.0,032.7,026.8,020.5,0004.7,0009.36,0035.17,0006.18
2024-05-03 20:27:00,SystemResetWarning,0821.2,5.00,000.00,024.9,024.6,000.0,032.8,026.8,020.4,0004.8,0008.92,0034.11,0005.99
2024-05-03 20:28:00,SystemResetWarning,0821.3,4.99,000.00,025.0,024.7,000.0,032.8,026.9,020.3,0004.8,0008.44,0031.37,0005.74
2024-05-03 20:29:00,SystemResetWarning,0821.3,4.99,000.00,025.1,024.8,000.0,032.9,027.0,019.6,0004.6,0007.86,0028.33,0005.45
2024-05-03 20:30:00,SystemResetWarning,0821.3,5.01,000.00,025.1,024.9,000.0,033.0,027.0,019.5,0004.6,0007.44,0026.05,0005.17
2024-05-03 20:31:00,SystemResetWarning,0821.6,5.01,000.00,025.2,024.9,000.0,033.0,027.1,019.6,0004.9,0007.00,0025.29,0004.88
2024-05-03 20:32:00,SystemResetWarning,0821.5,4.99,000.00,025.2,025.0,000.0,033.1,027.1,019.1,0002.5,0006.70,0025.64,0004.62
2024-05-03 20:33:00,SystemResetWarning,0821.7,4.99,000.00,025.3,025.0,000.0,033.1,027.2,019.1,0000.7,0006.37,0025.16,0004.38
2024-05-03 20:34:00,SystemResetWarning,0822.1,5.01,000.00,025.3,025.1,000.0,033.2,027.2,019.1,0000.0,0006.09,0024.99,0004.18
2024-05-03 20:35:00,SystemResetWarning,0821.8,5.01,000.00,025.4,025.1,000.0,033.2,027.3,019.2,0000.0,0005.79,0024.64,0003.97
2024-05-03 20:36:00,SystemResetWarning,0821.8,4.99,000.00,025.5,025.2,000.0,033.3,027.3,019.4,0000.0,0005.66,0025.54,0003.78
2024-05-03 20:37:00,SystemResetWarning,0821.9,4.99,000.00,025.5,025.2,000.0,033.3,027.4,018.9,0000.0,0005.53,0025.05,0003.62
2024-05-03 20:38:00,SystemResetWarning,0821.9,5.00,000.00,025.6,025.3,000.0,033.4,027.4,018.8,0000.0,0005.34,0021.52,0003.49
2024-05-03 20:39:00,SystemResetWarning,0821.7,5.01,000.00,025.6,025.3,000.0,033.4,027.4,019.0,0000.0,0005.20,0020.45,0003.40
2024-05-03 20:40:00,SystemResetWarning,0821.6,4.99,000.00,025.6,025.4,000.0,033.5,027.5,018.9,0000.0,0005.11,0020.09,0003.33
2024-05-03 20:41:00,SystemResetWarning,0821.9,4.98,000.00,025.6,024.2,000.0,033.6,026.8,018.8,0000.0,0005.04,0019.71,0003.29
2024-05-03 20:42:00,SystemResetWarning,0821.9,5.01,000.00,025.1,021.8,000.0,033.6,025.5,019.1,0000.0,0004.96,0018.73,0003.27
2024-05-03 20:43:00,SystemResetWarning,0821.8,5.00,000.00,024.7,021.3,000.0,033.6,025.1,020.0,0000.0,0004.98,0017.04,0003.26
2024-05-03 20:44:00,SystemResetWarning,0821.7,5.01,000.00,024.5,021.7,000.0,033.4,025.3,020.2,0000.0,0005.03,0017.05,0003.25
2024-05-03 20:45:00,SystemResetWarning,0821.6,4.99,000.00,024.5,022.1,000.0,033.3,025.6,019.9,0000.0,0005.03,0017.56,0003.24
2024-05-03 20:46:00,SystemResetWarning,0821.8,5.00,000.00,024.5,022.5,000.0,033.2,025.9,020.1,0000.0,0005.06,0018.83,0003.20
2024-05-03 20:47:00,SystemResetWarning,0821.4,5.01,000.00,024.6,022.9,000.0,033.1,026.1,019.4,0000.0,0005.01,0018.66,0003.17
2024-05-03 20:48:00,SystemResetWarning,0821.5,5.01,000.00,024.6,023.2,000.0,033.1,026.3,018.9,0000.0,0004.97,0019.66,0003.14
2024-05-03 20:49:00,SystemResetWarning,0821.5,4.99,000.00,024.7,023.5,000.0,033.1,026.3,019.0,0000.0,0004.89,0019.98,0003.09
2024-05-03 20:50:00,SystemResetWarning,0821.3,4.99,000.00,024.7,023.7,000.0,033.0,026.4,019.0,0000.0,0004.79,0019.82,0003.02
2024-05-03 20:51:00,SystemResetWarning,0821.4,5.01,000.00,024.8,023.9,000.0,033.0,026.6,019.0,0000.0,0004.76,0020.14,0002.96
2024-05-03 20:52:00,SystemResetWarning,0821.4,5.01,000.00,024.8,024.1,000.0,033.1,026.6,018.9,0000.0,0004.70,0019.84,0002.88
2024-05-03 20:53:00,SystemResetWarning,0821.4,5.00,000.00,024.9,024.2,000.0,033.1,026.7,018.9,0000.0,0004.67,0020.59,0002.78
2024-05-03 20:54:00,SystemResetWarning,0821.7,4.98,000.00,024.9,024.4,000.0,033.1,026.7,018.9,0000.0,0004.54,0021.66,0002.69
2024-05-03 20:55:00,SystemResetWarning,0821.9,4.99,000.00,025.0,024.5,000.0,033.1,026.8,019.1,0000.0,0004.38,0022.24,0002.61
2024-05-03 20:56:00,SystemResetWarning,0822.0,5.00,000.00,025.0,024.6,000.0,033.1,026.9,018.8,0000.0,0004.29,0021.00,0002.54
2024-05-03 20:57:00,SystemResetWarning,0821.8,5.01,000.00,025.1,024.7,000.0,033.2,026.9,018.7,0000.0,0004.23,0019.95,0002.48
2024-05-03 20:58:00,SystemResetWarning,0822.0,5.01,000.00,025.1,024.7,000.0,033.2,027.0,018.4,0000.0,0004.14,0019.79,0002.43
2024-05-03 20:59:00,SystemResetWarning,0821.6,5.00,000.00,025.2,024.8,000.0,033.2,027.1,018.5,0000.0,0004.09,0019.55,0002.38
